Location: Mohawk View
(42.7837°N, 73.7885°W)
Time: 07:41:44
(UTC+00:00)

Cosmos 1605 Rocket - Pass Details

Date: 17 June 2021
Orbit: 944 x 1006 km, 82.9° (Epoch: 03 August)

Event Time Altitude Azimuth Distance (km) Brightness Sun altitude
Rises 01:45:06 0° 350° (N) 3,745 8.1 -10.6°
Reaches altitude 10° 01:47:39 10° 348° (NNW) 2,790 7.4 -10.9°
Maximum altitude 01:54:02 71° 266° (W) 1,058 4.3 -11.7°
Drops below altitude 10° 02:00:19 10° 184° (S) 2,750 5.9 -12.4°
Enters shadow 02:01:23 - 183° (S) 3,146 6.2 -12.6°
